Location: Härggis
(46.9540°N, 8.4897°E)
Time: 21:15:35
(UTC+00:00)

Cosmos 1025 Rocket - Pass Details

Date: 27 May 2022
Orbit: 593 x 617 km, 82.5° (Epoch: 02 July)

Event Time Altitude Azimuth Distance (km) Brightness Sun altitude
Exits shadow 01:00:15 41° 195° (SSW) 886 3.3 -18.3°
Maximum altitude 01:01:44 83° 278° (W) 614 2.9 -18.2°
Drops below altitude 10° 01:06:04 10° 8° (N) 1,953 6.8 -17.9°
Sets 01:08:17 0° 9° (N) 2,857 7.9 -17.8°
